Regional Weather Roundup
Issued by NWS Sterling, VA

Home | Current Version | Previous Version | Text Only | Print | Product List | Glossary Off
Versions: 1 2 3 4 5 6 7 8 9 10 11 12 13 14 15 16 17 18 19 20 21 22 23 24 25 26 27 28 29 30 31 32 33 34 35 36 37 38 39 40 41 42 43 44 45 46 47 48 49 50

494
ASUS41 KLWX 251211
RWRLWX

REGIONAL WEATHER ROUNDUP
NATIONAL WEATHER SERVICE BALTIMORE MD/WASHINGTON DC
800 AM EDT TUE JUL 25 2017

Note: "FAIR" indicates few or no clouds below 12,000 feet
with no significant weather and/or obstructions to visibility.
 TC=TEMPERATURE CELSIUS

 * =Non NWS site. Station does not report precipitation (e.g. rain,
    snow, etc.), thunder, or fog.

DCZ001-MDZ009-015-VAZ040>042-051-053>054-251300-
WASHINGTON METRO

CITY           SKY/WX    TMP DP  RH WIND       PRES   REMARKS
WASHINGTON NAT PTSUNNY   72  58  61 N9        30.06R
DULLES         MOSUNNY   70  57  63 NW12      30.07R
ANDREWS AFB    MOSUNNY   71  56  58 NW15G23   30.05R
FT BELVOIR     MOSUNNY   73  58  59 NW5       30.06R
QUANTICO       CLOUDY    73  59  61 NW9       30.07R
COLLEGE PARK*  SUNNY     70  56  61 NW8       30.05R
LEESBURG*      SUNNY     70  61  73 NW6       30.08S
MANASSAS*      SUNNY     71  58  63 NW8       30.07R
GAITHERSBURG*  SUNNY     67  58  72 NW6       30.08R

$$

MDZ006>007-011-014-251300-
BALTIMORE METRO

CITY           SKY/WX    TMP DP  RH WIND       PRES   REMARKS
BWI AIRPORT    MOSUNNY   69  60  73 NW8       30.04R
MD SCIENCE CTR   N/A     73  57  57 MISG      30.04R
MARTIN STATE   MOSUNNY   72  64  78 NW8       30.04R
ANNAPOLIS      MOSUNNY   73  63  70 NW10      30.03R
FORT MEADE*    SUNNY     66  59  77 NW7       30.07R

$$

MDZ012-015-019>023-251300-
MARYLAND EASTERN SHORE

CITY           SKY/WX    TMP DP  RH WIND       PRES   REMARKS
OCEAN CITY     PTSUNNY   72  72 100 NW7       30.00R
SALISBURY      MOSUNNY   73  70  88 W6        30.01R
BAY BRIDGE AP* MOSUNNY   72  61  68 NW12      30.03R
CAMBRIDGE*     SUNNY     73  59  60 NW15G22   30.02R
EASTON*        MOSUNNY   72  63  73 N7        30.06R

$$

MDZ017>025-251300-
SOUTHERN MARYLAND

CITY           SKY/WX    TMP DP  RH WIND       PRES   REMARKS
PATUXENT RIVER PTSUNNY   74  59  59 NW17      30.03R
ST INIGOES     MOSUNNY   75  60  59 NW9       30.03R
LEONARDTOWN*   PTSUNNY   70  57  64 NW6       30.06R

$$

MDZ003>005-251300-
NORTH CENTRAL MARYLAND

CITY           SKY/WX    TMP DP  RH WIND       PRES   REMARKS
FREDERICK*     SUNNY     72  55  56 CALM      30.09R
HAGERSTOWN APT SUNNY     69  57  65 W6        30.08R
WESTMINSTER*   SUNNY     68  57  68 W5        30.07R

$$

MDZ501>502-251300-
WESTERN MARYLAND

CITY           SKY/WX    TMP DP  RH WIND       PRES   REMARKS
OAKLAND*       PTSUNNY   52  52 100 NW8       30.15R
CUMBERLAND*    CLOUDY    63  59  88 CALM      30.15R

$$

VAZ025>031-251300-
SHENANDOAH VALLEY

CITY           SKY/WX    TMP DP  RH WIND       PRES   REMARKS
WINCHESTER*    SUNNY     64  54  68 W14       30.09S
FRONT ROYAL*   SUNNY     68  55  64 N3        30.09R
LURAY*         SUNNY     68  59  73 CALM      30.10R
NEW MARKET*    SUNNY     67  58  72 CALM      30.10R
STAUNTON*      SUNNY     68  59  73 N6        30.12R HAZE
WAYNESBORO*    MOSUNNY   69  64  85 CALM      30.10S

$$

WVZ021-048>050-054>055-251300-
EASTERN WEST VIRGINIA PANHANDLE

CITY           SKY/WX    TMP DP  RH WIND       PRES   REMARKS
MARTINSBURG    SUNNY     69  55  60 NW12      30.07R
PETERSBURG*    MOSUNNY   67  57  69 E5        30.13R

$$

VAZ036>039-050-251300-
CENTRAL FOOTHILLS

CITY           SKY/WX    TMP DP  RH WIND       PRES   REMARKS
CHARLOTTESVILL CLOUDY    73  64  73 NE5       30.07R
CULPEPER*      SUNNY     71  59  66 N8        30.09R
ORANGE*        CLOUDY    68  59  73 CALM      30.08R
GORDONSVILLE*  CLOUDY    70  63  78 CALM      30.07R
WARRENTON*     MOSUNNY   71  54  54 NW6       30.07S

$$

VAZ055>057-251300-
NORTH AND CENTRAL PIEDMONT

CITY           SKY/WX    TMP DP  RH WIND       PRES   REMARKS
FREDERICKSBRG* CLOUDY    71  60  68 MISG      30.06R
STAFFORD*      CLOUDY    70  58  66 N9        30.11R

$$

NCZ024-NYZ072-PAZ021-071-VAZ022-071-251300-
OTHER REGIONAL OBSERVATIONS

CITY           SKY/WX    TMP DP  RH WIND       PRES   REMARKS
NEW YORK CITY  CLOUDY    64  59  83 VRB5      30.07R
PHILADELPHIA   CLOUDY    68  64  87 E7        30.03R
PITTSBURGH     CLOUDY    63  57  81 NW9       30.16R
ROANOKE        SUNNY     74  66  76 CALM      30.12R
RICHMOND       PTSUNNY   76  64  66 N14       30.05R
RALEIGH        PTSUNNY   78  76  93 CALM      30.06R

$$

ANZ530>537-251300-
MARINE OBSERVATIONS

STATION/POSITION TIME  TEMP    WIND        PRES
                       AIR SEA DIR/SP/G
                 (UTC) (F)     (DEG/KT/KT) (MB)
THOMAS PT LIGHT  1200   71 81  310/ 14/ 18   N/A
BALT KEY BRIDGE  1148   72     310/ 13/ 15 1016.6R
COVE POINT       1148   73     340/ 24/ 29 1017.1R
LEWISETTA        1148   75 84  360/ 10/ 14 1017.1R
SOLOMONS ISLAND  1148   74 83  330/ 11/ 19   N/A
PINEY POINT      1148          350/ 14/ 17   N/A

$$





USA.gov is the U.S. government's official web portal to all federal, state and local government web resources and services.